Date String (YYYY-MM-DD hh:mm:ss) UTC,Instrument flags,absolute air pressure of the measurement (hPa),sample flow rate (lpm),inlet stack bypass flow (lpm),air temperature of the measurement (°C),ambient temperature measured by the external sensor (°C),aerosol sample conditioner tube jacket temperature (°C),OPC LED temperature (°C),internal box temperature (°C),relative humidity of the measurement (%),span deviation,mass concentration of particles derived from Lorenz-Mie calculation of OPC scattering (μg/m³),mass concentration of particles derived from Lorenz-Mie calculation of OPC scattering (μg/m³),mass concentration of particles derived from Lorenz-Mie calculation of OPC scattering (μg/m³)
DateTimeUTC,F1_M11,P_M11,Q1_M11,Q2_M11,T1_M11,T2_M11,T3_M11,T4_M11,T5_M11,U1_M11,ZSPAN_M11,X2_M11,X0_M11,X1_M11
2024-03-31 15:00:00,SystemResetWarning,0819.3,4.99,000.00,020.1,019.3,000.0,028.7,021.9,25.3,0001.2,0008.25,0014.01,0007.66
2024-03-31 15:01:00,SystemResetWarning,0819.3,5.00,000.00,020.1,019.3,000.0,028.7,021.9,25.3,0001.1,0008.26,0013.70,0007.65
2024-03-31 15:02:00,SystemResetWarning,0819.4,4.99,000.00,020.1,019.3,000.0,028.7,021.9,25.4,0000.9,0008.25,0013.97,0007.61
2024-03-31 15:03:00,SystemResetWarning,0819.4,5.00,000.00,020.1,019.3,000.0,028.7,021.9,25.3,0000.9,0008.21,0014.42,0007.56
2024-03-31 15:04:00,SystemResetWarning,0819.4,5.00,000.00,020.1,019.4,000.0,028.7,021.9,25.2,0000.5,0008.21,0014.77,0007.52
2024-03-31 15:05:00,SystemResetWarning,0819.4,5.01,000.00,020.1,019.4,000.0,028.7,021.9,25.3,0000.5,0008.16,0014.71,0007.48
2024-03-31 15:06:00,SystemResetWarning,0819.4,5.00,000.00,020.1,019.4,000.0,028.7,021.9,25.4,0000.3,0008.09,0014.64,0007.44
2024-03-31 15:07:00,SystemResetWarning,0819.3,5.00,000.00,020.1,019.4,000.0,028.7,021.9,25.4,0000.2,0008.04,0013.97,0007.41
2024-03-31 15:08:00,SystemResetWarning,0819.2,4.99,000.00,020.1,019.4,000.0,028.7,021.9,25.3,-000.2,0008.00,0013.78,0007.37
2024-03-31 15:09:00,SystemResetWarning,0819.0,5.00,000.00,020.1,019.4,000.0,028.7,021.9,25.4,-000.0,0007.99,0013.87,0007.34
2024-03-31 15:10:00,SystemResetWarning,0819.0,5.00,000.00,020.1,019.4,000.0,028.7,021.9,25.9,0000.1,0007.91,0013.74,0007.29
2024-03-31 15:11:00,SystemResetWarning,0819.0,5.00,000.00,020.1,019.4,000.0,028.7,021.9,26.1,0000.2,0007.86,0013.68,0007.25
2024-03-31 15:12:00,SystemResetWarning,0819.0,5.02,000.00,020.1,019.4,000.0,028.7,021.9,25.8,0000.1,0007.84,0013.68,0007.23
2024-03-31 15:13:00,SystemResetWarning,0819.0,5.01,000.00,020.1,019.4,000.0,028.7,021.9,25.5,-000.1,0007.81,0013.10,0007.22
2024-03-31 15:14:00,SystemResetWarning,0819.0,4.99,000.00,020.1,019.4,000.0,028.7,021.9,25.4,-000.2,0007.82,0012.62,0007.22
2024-03-31 15:15:00,SystemResetWarning,0819.0,4.99,000.00,020.1,019.4,000.0,028.7,021.9,25.4,0000.0,0007.78,0012.10,0007.22
2024-03-31 15:16:00,SystemResetWarning,0818.9,4.99,000.00,020.1,019.4,000.0,028.7,021.9,25.4,0000.0,0007.79,0011.98,0007.22
2024-03-31 15:17:00,SystemResetWarning,0819.1,5.00,000.00,020.1,019.4,000.0,028.7,021.9,25.4,0000.2,0007.81,0011.58,0007.22
2024-03-31 15:18:00,SystemResetWarning,0819.3,5.01,000.00,020.1,019.4,000.0,028.7,021.9,25.4,0000.3,0007.80,0011.30,0007.21
2024-03-31 15:19:00,SystemResetWarning,0819.1,5.00,000.00,020.1,019.4,000.0,028.7,021.9,25.4,0000.3,0007.81,0011.42,0007.21
2024-03-31 15:20:00,SystemResetWarning,0818.9,4.99,000.00,020.1,019.4,000.0,028.7,021.9,25.4,0000.1,0007.83,0011.39,0007.22
2024-03-31 15:21:00,SystemResetWarning,0819.3,4.99,000.00,020.1,019.4,000.0,028.7,021.9,25.4,-000.2,0007.82,0011.28,0007.23
2024-03-31 15:22:00,SystemResetWarning,0819.4,4.99,000.00,020.1,019.4,000.0,028.7,021.9,25.4,-000.3,0007.87,0011.40,0007.25
2024-03-31 15:23:00,SystemResetWarning,0819.2,5.01,000.00,020.1,019.4,000.0,028.7,021.9,25.5,-000.5,0007.88,0011.40,0007.27
2024-03-31 15:24:00,SystemResetWarning,0819.1,5.01,000.00,020.1,019.4,000.0,028.7,021.9,25.7,-000.6,0007.92,0011.36,0007.29
2024-03-31 15:25:00,SystemResetWarning,0819.0,4.98,000.00,020.1,019.4,000.0,028.7,021.9,25.8,-000.7,0007.95,0011.61,0007.32
2024-03-31 15:26:00,SystemResetWarning,0818.9,5.00,000.00,020.1,019.4,000.0,028.6,021.9,25.8,-000.7,0007.97,0011.82,0007.34
2024-03-31 15:27:00,SystemResetWarning,0819.0,5.00,000.00,020.1,019.4,000.0,028.7,021.9,26.0,-000.8,0007.98,0011.76,0007.36
2024-03-31 15:28:00,SystemResetWarning,0819.0,5.01,000.00,020.1,019.4,000.0,028.7,021.9,25.9,-000.9,0007.97,0011.87,0007.37
2024-03-31 15:29:00,SystemResetWarning,0819.0,5.01,000.00,020.1,019.4,000.0,028.7,021.9,25.8,-000.8,0008.00,0012.43,0007.39
2024-03-31 15:30:00,SystemResetWarning,0819.0,5.00,000.00,020.1,019.4,000.0,028.7,021.9,25.7,-000.8,0008.02,0012.53,0007.41
2024-03-31 15:31:00,SystemResetWarning,0818.9,4.99,000.00,020.1,019.4,000.0,028.7,021.9,25.6,-001.0,0007.99,0012.34,0007.41
2024-03-31 15:32:00,SystemResetWarning,0819.3,5.00,000.00,020.1,019.4,000.0,028.7,021.9,25.6,-000.8,0008.00,0012.30,0007.42
2024-03-31 15:33:00,SystemResetWarning,0819.4,5.01,000.00,020.1,019.4,000.0,028.7,021.9,25.5,-000.6,0008.01,0012.36,0007.43
2024-03-31 15:34:00,SystemResetWarning,0819.1,5.01,000.00,020.1,019.4,000.0,028.6,021.9,25.6,-000.4,0008.01,0012.23,0007.43
2024-03-31 15:35:00,SystemResetWarning,0819.3,4.99,000.00,020.1,019.5,000.0,028.6,021.9,25.6,-000.1,0007.96,0012.06,0007.42
2024-03-31 15:36:00,SystemResetWarning,0819.2,4.99,000.00,020.1,019.4,000.0,028.6,021.9,25.7,0000.3,0007.95,0012.15,0007.40
2024-03-31 15:37:00,SystemResetWarning,0819.4,5.00,000.00,020.1,019.5,000.0,028.6,021.9,25.6,0000.5,0007.92,0012.03,0007.39
2024-03-31 15:38:00,SystemResetWarning,0819.3,5.01,000.00,020.1,019.5,000.0,028.6,021.9,25.4,0000.9,0007.89,0012.02,0007.37
2024-03-31 15:39:00,SystemResetWarning,0818.9,5.01,000.00,020.1,019.5,000.0,028.6,021.9,25.5,0001.1,0007.89,0012.28,0007.36
2024-03-31 15:40:00,SystemResetWarning,0818.9,4.99,000.00,020.1,019.5,000.0,028.6,021.9,25.5,0001.4,0007.91,0012.40,0007.36
2024-03-31 15:41:00,SystemResetWarning,0818.9,4.99,000.00,020.1,019.5,000.0,028.6,021.9,25.5,0001.7,0007.93,0012.41,0007.36
2024-03-31 15:42:00,SystemResetWarning,0818.8,5.00,000.00,020.1,019.5,000.0,028.6,021.9,25.5,0002.0,0007.97,0012.64,0007.36
2024-03-31 15:43:00,SystemResetWarning,0818.7,5.00,000.00,020.1,019.5,000.0,028.6,021.9,25.4,0001.6,0007.99,0012.79,0007.36
2024-03-31 15:44:00,SystemResetWarning,0818.7,5.01,000.00,020.1,019.5,000.0,028.6,021.9,25.5,0001.4,0008.03,0012.99,0007.38
2024-03-31 15:45:00,SystemResetWarning,0818.7,4.99,000.00,020.1,019.4,000.0,028.6,021.9,25.4,0001.2,0008.05,0013.11,0007.38
2024-03-31 15:46:00,SystemResetWarning,0818.7,4.99,000.00,020.1,019.4,000.0,028.6,021.9,25.2,0001.2,0008.08,0013.28,0007.38
2024-03-31 15:47:00,SystemResetWarning,0818.7,5.00,000.00,020.1,019.4,000.0,028.7,021.9,25.2,0000.9,0008.08,0013.40,0007.39
2024-03-31 15:48:00,SystemResetWarning,0818.6,5.01,000.00,020.1,019.5,000.0,028.6,021.9,25.2,0000.7,0008.10,0013.91,0007.42
2024-03-31 15:49:00,SystemResetWarning,0818.6,5.01,000.00,020.1,019.5,000.0,028.6,021.9,25.4,0000.6,0008.11,0014.01,0007.43
2024-03-31 15:50:00,SystemResetWarning,0818.6,5.01,000.00,020.1,019.5,000.0,028.6,021.9,25.5,0000.6,0008.12,0013.77,0007.44
2024-03-31 15:51:00,SystemResetWarning,0818.7,5.00,000.00,020.1,019.5,000.0,028.6,021.9,25.5,0000.2,0008.14,0013.46,0007.45
2024-03-31 15:52:00,SystemResetWarning,0818.7,5.00,000.00,020.1,019.5,000.0,028.6,021.9,25.4,0000.0,0008.12,0013.27,0007.46
2024-03-31 15:53:00,SystemResetWarning,0818.7,5.00,000.00,020.1,019.4,000.0,028.6,021.9,25.6,0000.3,0008.09,0013.05,0007.46
2024-03-31 15:54:00,SystemResetWarning,0818.7,5.00,000.00,020.1,019.5,000.0,028.6,021.9,25.5,0000.7,0008.08,0013.13,0007.46
2024-03-31 15:55:00,SystemResetWarning,0818.7,5.00,000.00,020.1,019.5,000.0,028.6,021.9,25.6,0001.0,0008.10,0012.97,0007.45
2024-03-31 15:56:00,SystemResetWarning,0818.7,5.00,000.00,020.1,019.5,000.0,028.6,021.9,25.7,0001.5,0008.11,0013.20,0007.46
2024-03-31 15:57:00,SystemResetWarning,0818.6,4.99,000.00,020.1,019.4,000.0,028.6,021.9,25.6,0001.7,0008.12,0013.58,0007.49
2024-03-31 15:58:00,SystemResetWarning,0818.6,5.00,000.00,020.1,019.5,000.0,028.6,021.9,25.5,0002.1,0008.16,0013.24,0007.51
2024-03-31 15:59:00,SystemResetWarning,0818.7,5.01,000.00,020.1,019.5,000.0,028.6,021.9,25.5,0001.9,0008.18,0012.80,0007.50
